Location: Sungai Bunut
(2.6333°N, 113.7333°E)
Time: 20:14:38
(UTC+00:00)

Courier 1B Rocket - Visible Passes

Search period start: 06 December 2023 00:00
Search period end: 16 December 2023 00:00
Orbit: 920 x 1201 km, 28.2° (Epoch: 05 December)

Date Brightness Start Highest point End Pass type
(mag) Time Alt. Az. Time Alt. Az. Time Alt. Az.
06 Dec 5.1 11:54:09 10° WNW 12:00:32 75° SSW 12:03:59 31° SE visible
06 Dec 7.6 13:49:23 10° WSW 13:50:27 13° WSW 13:50:27 13° WSW visible
06 Dec 7.7 21:32:16 10° SSW 21:37:41 20° SSE 21:42:58 10° ESE visible
07 Dec 4.9 10:53:09 10° NW 10:59:24 72° NNE 11:06:00 10° ESE visible
07 Dec 6.5 12:47:19 10° W 12:52:58 31° SSW 12:54:33 28° S visible
07 Dec 7.8 20:32:15 10° S 20:35:57 14° SSE 20:39:37 10° SE visible
08 Dec 5.9 11:45:40 10° WNW 11:51:43 47° SSW 11:58:08 10° SE visible
08 Dec 7.6 13:42:37 10° SW 13:45:10 13° SSW 13:45:10 13° SSW visible
08 Dec 7.2 21:22:18 10° SSW 21:28:56 29° SSE 21:35:24 10° E visible
09 Dec 5.2 10:44:21 10° WNW 10:50:35 72° SSW 10:57:06 10° SE visible
09 Dec 7.2 12:39:45 10° WSW 12:44:17 20° SSW 12:49:02 10° SSE visible
09 Dec 7.6 20:21:48 10° SSW 20:27:20 21° SSE 20:32:50 10° ESE visible
10 Dec 6.7 11:37:37 10° W 11:42:59 29° SSW 11:48:35 10° SSE visible
10 Dec 7.8 19:21:52 10° S 19:25:37 14° SSE 19:29:24 10° SE visible
10 Dec 6.5 21:12:41 10° SW 21:20:03 44° SSE 21:27:19 10° E visible
11 Dec 6.1 10:35:54 10° W 10:41:48 44° SSW 10:47:54 10° SE visible
11 Dec 7.6 12:33:17 10° SW 12:35:45 12° SSW 12:38:18 10° S visible
11 Dec 7.0 20:11:55 10° SSW 20:18:33 30° SSE 20:25:12 10° E visible
12 Dec 7.4 11:30:08 10° WSW 11:34:19 18° SSW 11:38:38 10° SSE visible
12 Dec 7.4 19:13:34 16° S 19:16:59 21° SSE 19:22:31 10° ESE visible
12 Dec 5.8 21:03:21 10° SW 21:11:06 65° SSE 21:18:48 10° ENE visible
13 Dec 7.9 18:17:44 12° SE 18:17:44 12° SE 18:18:58 10° SE visible
13 Dec 6.3 20:04:13 18° SSW 20:09:38 45° SSE 20:17:01 10° E visible
13 Dec 5.5 21:55:50 10° WSW 22:03:33 60° NNW 22:11:09 10° NE visible
14 Dec 7.7 11:23:59 10° SW 11:25:48 11° SSW 11:27:38 10° S visible
14 Dec 6.8 19:08:25 30° SSE 19:08:25 30° SSE 19:14:50 10° E visible
14 Dec 5.4 20:54:54 13° WSW 21:02:06 86° NNW 21:09:56 10° ENE visible
15 Dec 5.6 19:59:01 54° SSW 20:00:40 66° SSE 20:08:26 10° ENE visible
15 Dec 5.9 21:47:22 10° W 21:54:38 41° NNW 22:01:52 10° NE visible
